Tracking 22287 objects as of 27-Jan-2021
HD Live streaming from Space Station
objects crossing your sky now

STARLINK-1439

Track STARLINK-1439 now!
10-day predictions
STARLINK-1439 is classified as:


NORAD ID: 45716
Int'l Code: 2020-035BM
Perigee: 401.8 km
Apogee: 411.9 km
Inclination: 53.0 °
Period: 92.6 minutes
Semi major axis: 6777 km
RCS: Unknown
Launch date: June 4, 2020
Source: United States (US)
Launch site: AIR FORCE EASTERN TEST RANGE (AFETR)
aabbcc
Your satellite tracking list
Your tracking list is empty




NASA's NSSDC Master Catalog

Two Line Element Set (TLE):
1 45716U 20035BM  21027.57173922 -.00001506  00000-0 -14351-4 0  9993
2 45716  52.9981  89.4468 0007393  44.0302 316.1295 15.55840425 38426
Source of the keplerian elements: AFSPC